Location: Los Gatos B&B
(42.6926°N, 77.0646°W)
Time: 14:23:20
(UTC-04:00)

Amateur Radio Satellites - All Passes

Search period start: 22 June 2017 13:53
Search period end: 23 June 2017 13:53
Location: Los Gatos B&B, 42.6926°N, 77.0646°W

Satellite Date Start Highest point End Downlink Frequencies (MHz)
Time Altitude Azimuth
50 SAT 22 Jun 13:58:20 14:01:43 63° 101° (ESE) 14:05:06 437.505
Gurwin Techsat 1B 22 Jun 14:02:57 14:08:15 78° 74° (ENE) 14:13:35 435.225
ITAMSAT 1 22 Jun 14:11:25 14:14:04 14° 58° (ENE) 14:16:43 435.822/435.867
DX 1 22 Jun 14:16:52 14:21:13 64° 102° (ESE) 14:25:33 434.975-435.025
SO-50 22 Jun 14:30:18 14:32:33 14° 109° (ESE) 14:34:46 436.795
SPROUT 22 Jun 14:34:59 14:38:30 25° 293° (WNW) 14:42:00 437.525
ISS 22 Jun 14:36:05 14:38:35 20° 11° (N) 14:41:05 437.550
PCSat 22 Jun 14:40:37 14:45:26 32° 311° (NW) 14:50:18 145.827
UKube-1 22 Jun 14:41:34 14:45:55 81° 103° (ESE) 14:50:14 .
Tancredo 1 22 Jun 14:59:55 15:02:39 29° 22° (NNE) 15:05:22 437.200
Oscar 19 22 Jun 15:21:35 15:24:00 13° 271° (W) 15:26:26 437.125/150
VELOX 1 22 Jun 15:24:58 15:25:31 10° 301° (WNW) 15:26:04 145.980
AO-7 22 Jun 15:31:42 15:40:00 81° 69° (ENE) 15:48:24 .
Gurwin Techsat 1B 22 Jun 15:46:15 15:48:47 13° 271° (W) 15:51:19 435.225
ITAMSAT 1 22 Jun 15:47:37 15:52:48 84° 256° (WSW) 15:58:04 435.822/435.867
DX 1 22 Jun 15:54:44 15:56:52 14° 299° (WNW) 15:59:01 434.975-435.025
SO-50 22 Jun 16:07:53 16:12:26 71° 306° (NW) 16:16:58 436.795
ITUPSAT 1 22 Jun 16:09:24 16:14:10 62° 101° (ESE) 16:18:54 437.325
ISS 22 Jun 16:12:18 16:15:34 59° 30° (NNE) 16:18:50 437.550
UKube-1 22 Jun 16:20:11 16:21:17 11° 300° (WNW) 16:22:22 .
BEESAT 22 Jun 16:21:49 16:26:38 84° 102° (ESE) 16:31:25 436.000
MOZHAYETS 4 22 Jun 16:24:07 16:28:41 59° 101° (E) 16:33:11
Tancredo 1 22 Jun 16:35:26 16:38:19 41° 220° (SW) 16:41:12 437.200
KKS-1 22 Jun 16:48:39 16:50:45 13° 91° (E) 16:52:51 437.445
DOVE 4 22 Jun 16:55:14 16:58:01 18° 65° (ENE) 17:00:51 437.250
CUBESAT XI-V 22 Jun 16:56:03 16:59:48 24° 94° (E) 17:03:30 437.345
AO-7 22 Jun 17:27:33 17:33:37 22° 268° (W) 17:39:46 .
STARS 22 Jun 17:28:02 17:30:32 15° 91° (E) 17:33:01 437.465
HO-68 22 Jun 17:32:38 17:36:01 14° 49° (NE) 17:39:24 435.675
NUDT-PHONESAT 22 Jun 17:47:26 17:50:19 21° 68° (ENE) 17:53:13 437.300
ITUPSAT 1 22 Jun 17:48:32 17:51:29 16° 299° (WNW) 17:54:25 437.325
ISS 22 Jun 17:49:27 17:51:47 18° 227° (SW) 17:54:06 437.550
XW-2F 22 Jun 17:51:21 17:54:42 29° 70° (ENE) 17:58:03 145.980 - 146.000
SO-50 22 Jun 17:51:33 17:53:43 13° 326° (NW) 17:55:52 436.795
XW-2D 22 Jun 17:52:42 17:56:09 33° 71° (ENE) 17:59:37 145.860 - 145.880
LilacSat-2 22 Jun 17:56:28 18:00:03 37° 72° (ENE) 18:03:39 437.200
XW-2B 22 Jun 18:01:24 18:05:01 40° 72° (ENE) 18:08:38 145.730 - 145.750
BEESAT 22 Jun 18:01:46 18:03:42 12° 301° (WNW) 18:05:39 436.000
MOZHAYETS 4 22 Jun 18:02:37 18:05:20 16° 298° (WNW) 18:08:02
CUTE-I 22 Jun 18:05:22 18:10:27 48° 70° (ENE) 18:15:34 437.470
XW-2C 22 Jun 18:16:28 18:20:17 63° 75° (ENE) 18:24:06 145.795 - 145.815
KKS-1 22 Jun 18:23:16 18:27:42 62° 287° (WNW) 18:32:07 437.445
DOVE 4 22 Jun 18:31:31 18:35:24 40° 262° (W) 18:39:24 437.250
CUBESAT XI-V 22 Jun 18:33:04 18:37:13 34° 291° (WNW) 18:41:21 437.345
KAITUO 1B 22 Jun 18:39:24 18:43:11 87° 258° (WSW) 18:47:00 145.475/437.950
CUBEBUG 2 22 Jun 18:46:34 18:48:48 14° 61° (ENE) 18:51:04 437.445
SEEDS 22 Jun 18:59:24 19:02:27 20° 66° (ENE) 19:05:29 437.485
STARS 22 Jun 19:02:51 19:07:12 54° 288° (WNW) 19:11:30 437.465
CUTE 1.7 + AOD 2 22 Jun 19:09:07 19:13:03 38° 71° (ENE) 19:17:00 437.475
HO-68 22 Jun 19:15:18 19:22:24 66° 69° (ENE) 19:29:32 435.675
NUDT-PHONESAT 22 Jun 19:20:50 19:24:04 27° 264° (W) 19:27:20 437.300
STRAND 1 22 Jun 19:22:24 19:25:14 15° 90° (E) 19:28:01 437.568
XW-2F 22 Jun 19:25:59 19:28:51 20° 266° (W) 19:31:43 145.980 - 146.000
UWE-3 22 Jun 19:26:14 19:29:36 21° 65° (ENE) 19:32:59 435.000/436.395/437.385
XW-2D 22 Jun 19:27:45 19:30:25 18° 267° (W) 19:33:05 145.860 - 145.880
ZACube-1 22 Jun 19:30:22 19:32:31 13° 61° (ENE) 19:34:41 437.345
XW-2A 22 Jun 19:30:41 19:34:00 46° 73° (ENE) 19:37:19 145.665 - 145.685
LilacSat-2 22 Jun 19:32:02 19:34:28 16° 268° (W) 19:36:55 437.200
XW-2B 22 Jun 19:37:09 19:39:22 15° 268° (W) 19:41:36 145.730 - 145.750
CUTE-I 22 Jun 19:46:36 19:50:43 23° 267° (W) 19:54:53 437.470
AAUSAT CUBESAT 2 22 Jun 19:59:44 20:03:36 40° 72° (ENE) 20:07:28 437.432
CUBEBUG 2 22 Jun 20:20:14 20:24:45 72° 259° (WSW) 20:29:27 437.445
AO-73 22 Jun 20:30:53 20:35:12 47° 72° (ENE) 20:39:36 145.935
SEEDS 22 Jun 20:33:58 20:37:52 37° 263° (W) 20:41:48 437.485
RS-15 22 Jun 20:43:46 20:53:55 33° 104° (ESE) 21:04:13 29.354- 29.394
CUTE 1.7 + AOD 2 22 Jun 20:45:58 20:49:01 19° 267° (W) 20:52:05 437.475
STRAND 1 22 Jun 20:59:45 21:04:54 70° 287° (WNW) 21:10:00 437.568
UWE-3 22 Jun 21:01:22 21:05:42 44° 262° (W) 21:10:09 435.000/436.395/437.385
Oscar 11 22 Jun 21:02:13 21:06:34 79° 76° (ENE) 21:10:56 .
ZACube-1 22 Jun 21:03:40 21:08:10 72° 258° (WSW) 21:12:47 437.345
HO-68 22 Jun 21:04:58 21:10:37 25° 267° (W) 21:16:19 435.675
XW-2A 22 Jun 21:06:37 21:06:59 10° 270° (W) 21:07:22 145.665 - 145.685
AAUSAT CUBESAT 2 22 Jun 21:36:31 21:39:13 17° 268° (W) 21:41:56 437.432
PCSat 22 Jun 21:43:43 21:48:52 41° 52° (NE) 21:53:58 145.827
AO-85 22 Jun 21:43:47 21:47:46 53° 120° (ESE) 21:51:37 145.980
M-CUBED/EXP-1 PRIME 22 Jun 21:50:59 21:53:04 14° 99° (E) 21:55:12 437.505
DELFI C3 22 Jun 21:56:26 22:00:21 83° 76° (ENE) 22:04:17 145.870
YUBILEINY 22 Jun 21:58:32 22:06:21 38° 85° (E) 22:14:13 435.215
BEESAT 3 22 Jun 22:05:13 22:09:02 48° 119° (ESE) 22:12:56 437.485
AO-73 22 Jun 22:08:36 22:11:40 18° 269° (W) 22:14:47 145.935
EO-88 22 Jun 22:09:59 22:13:39 82° 77° (ENE) 22:17:21 145.990 - 145.960
FO-29 22 Jun 22:28:05 22:35:35 49° 97° (E) 22:43:05 435.910
TIGRISAT 22 Jun 22:31:08 22:35:10 28° 95° (E) 22:39:06 435.000
LO-87 22 Jun 22:44:10 22:47:07 25° 70° (ENE) 22:50:07 145.935 - 145.965
NO-84 22 Jun 22:47:51 22:51:25 33° 130° (SE) 22:55:13 435.350 FM
O/OREOS (USA 219) 22 Jun 22:51:41 22:56:15 89° 112° (ESE) 23:00:48 437.305
ESTCUBE 1 22 Jun 22:51:53 22:55:29 24° 66° (ENE) 22:59:05 437.505/2401.250
RS-15 22 Jun 22:53:06 23:05:19 77° 306° (NW) 23:17:46 29.354- 29.394
BEESAT 2 22 Jun 22:56:31 23:00:26 61° 120° (ESE) 23:04:26 435.950
SO-50 22 Jun 22:58:45 23:02:02 19° 40° (NE) 23:05:19 436.795
UNISAT 6 22 Jun 23:11:49 23:16:33 80° 103° (ESE) 23:21:09 437.425
PRISM 22 Jun 23:21:51 23:25:58 77° 284° (WNW) 23:30:03 437.425
M-CUBED/EXP-1 PRIME 22 Jun 23:24:12 23:27:37 41° 292° (WNW) 23:31:16 437.505
AO-85 22 Jun 23:25:41 23:28:25 17° 318° (NW) 23:31:08 145.980
PCSat 22 Jun 23:27:24 23:32:07 31° 250° (WSW) 23:36:47 145.827
BEESAT 3 22 Jun 23:43:54 23:46:52 20° 317° (NW) 23:49:52 437.485
AIST 2D 22 Jun 23:52:40 23:55:37 25° 95° (E) 23:58:32 435.315
SPROUT 22 Jun 23:52:58 23:56:30 26° 68° (ENE) 00:00:04 437.525
YUBILEINY 22 Jun 23:54:27 00:02:54 50° 286° (WNW) 00:11:26 435.215
DUCHIFAT 1 22 Jun 23:59:10 00:00:56 12° 90° (E) 00:02:42 145.980
NANOSAT C BR1 23 Jun 00:05:06 00:07:49 16° 92° (E) 00:10:31 145.865
TIGRISAT 23 Jun 00:07:41 00:11:48 31° 292° (WNW) 00:15:52 435.000
FO-29 23 Jun 00:13:20 00:20:22 40° 295° (WNW) 00:27:31 435.910
LO-87 23 Jun 00:17:55 00:20:33 19° 266° (W) 00:23:12 145.935 - 145.965
NO-84 23 Jun 00:25:01 00:28:56 42° 329° (NNW) 00:33:04 435.350 FM
ESTCUBE 1 23 Jun 00:28:00 00:32:06 35° 263° (W) 00:36:15 437.505/2401.250
50 SAT 23 Jun 00:31:08 00:33:56 24° 70° (ENE) 00:36:44 437.505
O/OREOS (USA 219) 23 Jun 00:34:35 00:36:20 12° 311° (NW) 00:38:05 437.305
BEESAT 2 23 Jun 00:35:53 00:38:34 17° 319° (NW) 00:41:17 435.950
SO-50 23 Jun 00:38:25 00:42:54 65° 240° (WSW) 00:47:25 436.795
POLYITAN 1 23 Jun 00:38:42 00:42:48 42° 98° (E) 00:46:51 437.675
VELOX 1 23 Jun 00:42:53 00:47:16 85° 79° (E) 00:51:41 145.980
QB50P2 23 Jun 00:49:14 00:53:30 61° 101° (ESE) 00:57:42 145.880/145.840
UNISAT 6 23 Jun 00:50:37 00:52:33 12° 300° (WNW) 00:54:29 437.425
RS-15 23 Jun 01:09:33 01:20:15 33° 335° (NNW) 01:30:58 29.354- 29.394
DX 1 23 Jun 01:12:47 01:17:01 60° 73° (ENE) 01:21:18 434.975-435.025
EO-79 23 Jun 01:14:53 01:19:11 76° 284° (WNW) 01:23:26 145.935-145.965
BUGSAT 1 23 Jun 01:20:19 01:24:04 29° 96° (E) 01:27:46 437.445
AIST 2D 23 Jun 01:26:06 01:28:41 19° 292° (WNW) 01:31:15 435.315
SPROUT 23 Jun 01:28:37 01:32:18 28° 264° (W) 01:36:02 437.525
DUCHIFAT 1 23 Jun 01:32:47 01:36:59 60° 287° (WNW) 01:41:09 145.980
UKube-1 23 Jun 01:36:19 01:40:35 74° 75° (ENE) 01:44:54 .
NANOSAT C BR1 23 Jun 01:39:40 01:43:45 44° 288° (WNW) 01:47:48 145.865
ITUPSAT 1 23 Jun 01:44:12 01:44:21 10° 57° (ENE) 01:44:31 437.325
Oscar 19 23 Jun 01:50:22 01:54:31 24° 94° (E) 01:58:39 437.125/150
BEESAT 23 Jun 01:54:05 01:56:18 13° 59° (ENE) 01:58:32 436.000
50 SAT 23 Jun 02:04:19 02:06:43 18° 266° (W) 02:09:07 437.505
NO-84 23 Jun 02:04:31 02:07:29 18° 349° (N) 02:10:29 435.350 FM
POLYITAN 1 23 Jun 02:15:16 02:18:16 19° 295° (WNW) 02:21:14 437.675
Gurwin Techsat 1B 23 Jun 02:18:49 02:23:24 29° 95° (E) 02:27:58 435.225
QB50P2 23 Jun 02:26:36 02:28:45 14° 298° (WNW) 02:30:54 145.880/145.840
DX 1 23 Jun 02:51:43 02:53:36 13° 270° (W) 02:55:28 434.975-435.025
BUGSAT 1 23 Jun 02:55:47 02:59:18 25° 293° (WNW) 03:02:46 437.445
ITUPSAT 1 23 Jun 03:16:32 03:21:20 78° 75° (ENE) 03:26:10 437.325
MOZHAYETS 4 23 Jun 03:26:15 03:30:50 61° 73° (ENE) 03:35:25
RS-15 23 Jun 03:28:07 03:38:00 26° 10° (N) 03:47:38 29.354- 29.394
BEESAT 23 Jun 03:28:38 03:33:25 79° 256° (WSW) 03:38:15 436.000
Oscar 19 23 Jun 03:29:11 03:33:58 41° 291° (WNW) 03:38:45 437.125/150
AO-7 23 Jun 03:33:26 03:40:01 25° 93° (E) 03:46:32 .
NO-84 23 Jun 03:43:26 03:46:26 18° 11° (N) 03:49:26 435.350 FM
KKS-1 23 Jun 03:47:35 03:50:00 14° 62° (ENE) 03:52:23 437.445
Gurwin Techsat 1B 23 Jun 03:58:31 04:03:24 38° 292° (WNW) 04:08:16 435.225
ITAMSAT 1 23 Jun 03:59:58 04:04:40 32° 96° (E) 04:09:18 435.822/435.867
CUBESAT XI-V 23 Jun 03:59:59 04:03:50 27° 67° (ENE) 04:07:42 437.345
STARS 23 Jun 04:25:36 04:28:10 15° 62° (ENE) 04:30:44 437.465
ITUPSAT 1 23 Jun 04:58:06 04:59:42 11° 271° (W) 05:01:19 437.325
MOZHAYETS 4 23 Jun 05:05:56 05:08:23 14° 270° (W) 05:10:49
NO-84 23 Jun 05:20:50 05:25:00 40° 31° (NNE) 05:29:04 435.350 FM
KKS-1 23 Jun 05:21:40 05:26:02 61° 259° (WSW) 05:30:27 437.445
AO-7 23 Jun 05:25:06 05:33:28 74° 292° (WNW) 05:41:47 .
CUBESAT XI-V 23 Jun 05:36:54 05:41:05 32° 264° (W) 05:45:16 437.345
ITAMSAT 1 23 Jun 05:39:25 05:44:05 33° 294° (WNW) 05:48:43 435.822/435.867
RS-15 23 Jun 05:42:35 05:54:27 50° 42° (NE) 06:05:43 29.354- 29.394
STARS 23 Jun 05:59:45 06:04:02 55° 259° (W) 06:08:23 437.465
AO-85 23 Jun 06:13:35 06:17:37 57° 54° (NE) 06:21:53 145.980
BEESAT 3 23 Jun 06:21:14 06:25:00 36° 50° (NE) 06:28:42 437.485
CUTE-I 23 Jun 06:22:32 06:26:07 18° 91° (E) 06:29:42 437.470
DOVE 4 23 Jun 06:28:05 06:32:46 48° 99° (E) 06:37:41 437.250
STRAND 1 23 Jun 06:38:31 06:42:34 24° 64° (ENE) 06:46:38 437.568
NUDT-PHONESAT 23 Jun 06:50:14 06:53:20 24° 95° (E) 06:56:22 437.300
XW-2F 23 Jun 06:56:19 06:59:50 37° 97° (E) 07:03:18 145.980 - 146.000
XW-2D 23 Jun 06:58:09 07:01:47 42° 99° (E) 07:05:20 145.860 - 145.880
NO-84 23 Jun 06:58:34 07:02:35 37° 229° (SW) 07:06:27 435.350 FM
LilacSat-2 23 Jun 07:02:48 07:06:30 50° 100° (E) 07:10:10 437.200
XW-2B 23 Jun 07:07:00 07:10:43 53° 100° (E) 07:14:23 145.730 - 145.750
BEESAT 2 23 Jun 07:13:26 07:17:22 46° 52° (NE) 07:21:15 435.950
AO-7 23 Jun 07:19:34 07:24:52 19° 313° (NW) 07:30:11 .
XW-2C 23 Jun 07:22:17 07:26:06 86° 107° (ESE) 07:29:51 145.795 - 145.815
O/OREOS (USA 219) 23 Jun 07:22:24 07:25:53 21° 56° (NE) 07:29:20 437.305
KAITUO 1B 23 Jun 07:43:43 07:47:24 66° 285° (WNW) 07:51:04 145.475/437.950
AO-85 23 Jun 07:55:14 07:57:38 15° 249° (WSW) 08:00:07 145.980
RS-15 23 Jun 07:55:33 08:07:14 58° 247° (WSW) 08:18:20 29.354- 29.394
BEESAT 3 23 Jun 07:59:18 08:02:22 21° 247° (WSW) 08:05:23 437.485
CUTE-I 23 Jun 08:01:15 08:06:34 61° 288° (WNW) 08:11:52 437.470
DOVE 4 23 Jun 08:06:35 08:10:10 21° 294° (WNW) 08:13:53 437.250
YUBILEINY 23 Jun 08:07:53 08:13:54 20° 60° (ENE) 08:19:52 435.215
CUBEBUG 2 23 Jun 08:10:49 08:14:40 24° 93° (E) 08:18:28 437.445
STRAND 1 23 Jun 08:16:33 08:21:26 45° 261° (W) 08:26:24 437.568
SEEDS 23 Jun 08:16:45 08:20:29 31° 96° (E) 08:24:12 437.485
NUDT-PHONESAT 23 Jun 08:24:12 08:27:06 22° 292° (WNW) 08:30:00 437.300
XW-2A 23 Jun 08:24:16 08:27:34 43° 99° (E) 08:30:49 145.665 - 145.685
CUTE 1.7 + AOD 2 23 Jun 08:28:26 08:32:39 69° 101° (ESE) 08:36:49 437.475
HO-68 23 Jun 08:29:38 08:36:48 64° 103° (ESE) 08:43:53 435.675
XW-2F 23 Jun 08:31:20 08:33:40 16° 294° (WNW) 08:35:59 145.980 - 146.000
XW-2D 23 Jun 08:33:32 08:35:35 14° 295° (WNW) 08:37:39 145.860 - 145.880
M-CUBED/EXP-1 PRIME 23 Jun 08:37:55 08:40:15 18° 63° (ENE) 08:42:33 437.505
LilacSat-2 23 Jun 08:38:40 08:40:20 13° 296° (WNW) 08:41:59 437.200
FO-29 23 Jun 08:42:49 08:47:18 22° 57° (ENE) 08:52:09 435.910
XW-2B 23 Jun 08:42:58 08:44:26 12° 296° (WNW) 08:45:53 145.730 - 145.750
UWE-3 23 Jun 08:50:09 08:54:26 36° 96° (E) 08:58:37 435.000/436.395/437.385
Oscar 11 23 Jun 08:50:15 08:52:26 14° 90° (E) 08:54:35 .
ZACube-1 23 Jun 08:52:00 08:55:28 21° 93° (E) 08:58:50 437.345
BEESAT 2 23 Jun 08:52:04 08:54:47 17° 249° (WSW) 08:57:27 435.950
ISS 23 Jun 08:54:59 08:55:59 11° 130° (SE) 08:56:59 437.550
O/OREOS (USA 219) 23 Jun 09:01:15 09:05:27 41° 254° (WSW) 09:09:38 437.305
Tancredo 1 23 Jun 09:06:35 09:09:12 27° 137° (SE) 09:11:50 437.200
AAUSAT CUBESAT 2 23 Jun 09:15:54 09:20:00 70° 101° (E) 09:24:06 437.432
TIGRISAT 23 Jun 09:30:20 09:34:10 27° 67° (ENE) 09:38:05 435.000
CUBEBUG 2 23 Jun 09:47:01 09:51:21 36° 290° (WNW) 09:55:35 437.445
SEEDS 23 Jun 09:52:45 09:56:00 22° 293° (WNW) 09:59:13 437.485
AO-73 23 Jun 09:54:02 09:58:32 89° 100° (E) 10:02:54 145.935
XW-2A 23 Jun 09:58:42 09:59:53 11° 296° (WNW) 10:01:05 145.665 - 145.685
YUBILEINY 23 Jun 10:03:11 10:12:06 87° 83° (E) 10:20:54 435.215
CUTE 1.7 + AOD 2 23 Jun 10:06:26 10:07:54 12° 298° (WNW) 10:09:21 437.475
UNISAT 6 23 Jun 10:10:45 10:15:18 74° 75° (ENE) 10:19:59 437.425
PRISM 23 Jun 10:11:22 10:15:25 81° 75° (ENE) 10:19:29 437.425
M-CUBED/EXP-1 PRIME 23 Jun 10:11:49 10:14:36 24° 258° (WSW) 10:17:20 437.505
RS-15 23 Jun 10:14:26 10:16:41 11° 269° (W) 10:18:54 29.354- 29.394
HO-68 23 Jun 10:18:11 10:23:59 27° 302° (WNW) 10:29:46 435.675
Oscar 11 23 Jun 10:24:40 10:28:54 55° 287° (WNW) 10:33:05 .
FO-29 23 Jun 10:25:38 10:31:32 71° 259° (WSW) 10:38:17 435.910
UWE-3 23 Jun 10:27:00 10:30:40 24° 294° (WNW) 10:34:16 435.000/436.395/437.385
ZACube-1 23 Jun 10:27:42 10:31:51 37° 290° (WNW) 10:35:53 437.345
ISS 23 Jun 10:28:43 10:31:59 90° 129° (SE) 10:35:17 437.550
AIST 2D 23 Jun 10:29:19 10:30:35 12° 65° (ENE) 10:31:53 435.315
Tancredo 1 23 Jun 10:41:51 10:44:43 37° 334° (NNW) 10:47:36 437.200
DUCHIFAT 1 23 Jun 10:52:39 10:53:50 11° 60° (ENE) 10:54:59 145.980
AAUSAT CUBESAT 2 23 Jun 10:53:41 10:54:53 11° 298° (WNW) 10:56:06 437.432
NANOSAT C BR1 23 Jun 10:58:26 11:00:44 14° 63° (ENE) 11:03:02 145.865
TIGRISAT 23 Jun 11:06:37 11:10:42 32° 264° (W) 11:14:54 435.000
DELFI C3 23 Jun 11:07:10 11:11:04 65° 285° (WNW) 11:14:58 145.870
EO-88 23 Jun 11:11:29 11:15:09 83° 285° (WNW) 11:18:47 145.990 - 145.960
POLYITAN 1 23 Jun 11:31:44 11:35:36 34° 70° (ENE) 11:39:30 437.675
AO-73 23 Jun 11:33:26 11:34:00 10° 301° (WNW) 11:34:34 145.935
QB50P2 23 Jun 11:42:08 11:46:13 48° 72° (ENE) 11:50:21 145.880/145.840
LO-87 23 Jun 11:43:09 11:46:21 28° 96° (E) 11:49:32 145.935 - 145.965
UNISAT 6 23 Jun 11:51:02 11:52:33 11° 272° (W) 11:54:04 437.425
AIST 2D 23 Jun 11:59:56 12:03:22 47° 261° (W) 12:06:50 435.315
YUBILEINY 23 Jun 12:01:53 12:07:39 20° 283° (WNW) 12:13:25 435.215
ISS 23 Jun 12:06:08 12:08:50 22° 345° (NNW) 12:11:31 437.550
EO-79 23 Jun 12:07:26 12:11:40 85° 79° (E) 12:15:58 145.935-145.965
BUGSAT 1 23 Jun 12:10:52 12:14:07 23° 66° (ENE) 12:17:24 437.445
Tancredo 1 23 Jun 12:18:57 12:20:56 16° 354° (N) 12:22:56 437.200
ESTCUBE 1 23 Jun 12:19:08 12:23:26 44° 99° (E) 12:27:43 437.505/2401.250
DUCHIFAT 1 23 Jun 12:24:38 12:28:51 76° 258° (WSW) 12:33:08 145.980
PCSat 23 Jun 12:26:30 12:31:11 31° 109° (ESE) 12:35:53 145.827
NANOSAT C BR1 23 Jun 12:31:48 12:35:58 56° 260° (W) 12:40:10 145.865
VELOX 1 23 Jun 12:33:20 12:35:55 15° 91° (E) 12:38:29 145.980
Oscar 19 23 Jun 13:07:40 13:12:26 39° 69° (ENE) 13:17:12 437.125/150
POLYITAN 1 23 Jun 13:08:11 13:11:27 21° 266° (W) 13:14:45 437.675
SPROUT 23 Jun 13:12:45 13:16:52 43° 99° (E) 13:20:58 437.525
LO-87 23 Jun 13:16:59 13:19:36 19° 292° (WNW) 13:22:12 145.935 - 145.965
QB50P2 23 Jun 13:19:48 13:22:16 15° 269° (W) 13:24:47 145.880/145.840
UKube-1 23 Jun 13:24:47 13:26:08 11° 90° (E) 13:27:28 .
50 SAT 23 Jun 13:25:13 13:27:57 22° 96° (E) 13:30:40 437.505
Gurwin Techsat 1B 23 Jun 13:40:25 13:45:30 49° 71° (ENE) 13:50:38 435.225
ISS 23 Jun 13:43:49 13:46:09 17° 5° (N) 13:48:28 437.550
BUGSAT 1 23 Jun 13:45:38 13:49:18 31° 263° (W) 13:53:02 437.445
